Weather History for Tampa Macdill AFB, FL

Change the Weather History Date:

Saturday, September 7, 2013

  Actual Average Record
Temperature  
Mean Temperature 80 °F -  
Max Temperature 90 °F 87 °F 91 °F (1996)
Min Temperature 70 °F 73 °F 70 °F (2013)
Cooling Degree Days 15    
Growing Degree Days 30 (Base 50)    
Moisture  
Dew Point 74 °F    
Average Humidity 83    
Maximum Humidity 100    
Minimum Humidity 57    
Precipitation  
Precipitation 0.00 in - - ()
Sea Level Pressure  
Sea Level Pressure 29.99 in    
Wind  
Wind Speed 7 mph (ENE)    
Max Wind Speed 15 mph    
Max Gust Speed -    
Visibility 10 miles    
Events Rain , Thunderstorm    
Averages and records for this station are not official NWS values.
T = Trace of Precipitation, MM = Missing Value Source: NWS Daily Summary

Daily Weather History Graph

Daily Weather History Graph

Search for Another Location

Airport:

Trip Planner

Search our weather history database for the weather conditions in past years. The results will help you decide how hot, cold, wet, or windy it might be!

Date:

Astronomy

Sep. 07, 2013 Rise Set
Actual Time 7:11 AM EDT 7:43 PM EDT
Civil Twilight 6:48 AM EDT 8:07 PM EDT
Nautical Twilight 6:20 AM EDT 8:35 PM EDT
Astronomical Twilight 5:52 AM EDT 9:03 PM EDT
Moon 9:08 AM EDT (9/7) 9:00 PM EDT (9/7)
Length of Visible Light 13h 19m
Length of Day
12h 32m
Waxing Crescent, 5% of the Moon is Illuminated
Sep 7
Waxing Crescent
Sep 12
First Quarter
Sep 19
Full
Sep 26
Last Quarter
Oct 4
New

Hourly Weather History & Observations

Time (EDT) Temp. Heat Index Dew Point Humidity Pressure Visibility Wind Dir Wind Speed Gust Speed Precip Events Conditions
12:58 AM 74.8 °F - 73.2 °F 95% 30.03 in 10.0 mi East 9.2 mph - N/A   Scattered Clouds
1:58 AM 73.4 °F - 72.7 °F 98% 30.02 in 10.0 mi NE 3.5 mph - N/A   Partly Cloudy
2:58 AM 72.1 °F - 71.6 °F 98% 30.00 in 10.0 mi NE 5.8 mph - N/A   Clear
3:58 AM 71.4 °F - 71.1 °F 99% 30.01 in 10.0 mi NNE 5.8 mph - N/A   Clear
4:58 AM 71.2 °F - 70.9 °F 99% 29.99 in 10.0 mi ENE 6.9 mph - N/A   Clear
5:58 AM 70.9 °F - 70.9 °F 100% 29.99 in 10.0 mi East 5.8 mph - N/A   Clear
6:58 AM 71.1 °F - 71.1 °F 100% 30.00 in 10.0 mi NE 5.8 mph - N/A   Clear
7:58 AM 72.0 °F - 72.0 °F 100% 30.01 in 10.0 mi ENE 5.8 mph - N/A   Clear
8:58 AM 77.5 °F - 77.2 °F 99% 30.01 in 10.0 mi East 11.5 mph - N/A   Clear
9:58 AM 79.7 °F - 75.9 °F 88% 30.02 in 10.0 mi East 8.1 mph - N/A   Clear
10:58 AM 83.7 °F 92.7 °F 76.5 °F 79% 30.05 in 10.0 mi ENE 8.1 mph - N/A   Clear
11:58 AM 85.3 °F 95.8 °F 77.0 °F 76% 30.04 in 10.0 mi East 5.8 mph - N/A   Partly Cloudy
12:58 PM 87.6 °F 100.3 °F 77.7 °F 72% 30.03 in 10.0 mi ENE 8.1 mph - N/A   Clear
1:58 PM 89.8 °F 101.5 °F 76.1 °F 64% 30.02 in 10.0 mi East 2.3 mph - N/A   Clear
2:58 PM 89.8 °F 102.1 °F 76.6 °F 65% 29.98 in 10.0 mi WNW 5.8 mph - N/A   Clear
3:58 PM 90.7 °F 100.1 °F 74.3 °F 58% 29.97 in 10.0 mi WNW 6.9 mph - N/A   Clear
4:58 PM 90.1 °F 98.3 °F 72.9 °F 57% 29.94 in 10.0 mi NW 6.9 mph - N/A   Clear
5:58 PM 89.1 °F 97.5 °F 73.6 °F 60% 29.93 in 10.0 mi NNW 5.8 mph - N/A   Clear
6:37 PM 87.8 °F 97.6 °F 75.2 °F 66% 29.94 in 10.0 mi North 10.4 mph - N/A Rain Light Rain
6:48 PM 84.2 °F 90.9 °F 73.4 °F 70% 29.94 in 10.0 mi Variable 5.8 mph - N/A   Scattered Clouds
6:58 PM 83.7 °F 90.4 °F 73.8 °F 72% 29.95 in 10.0 mi North 3.5 mph - 0.00 in   Scattered Clouds
7:58 PM 82.6 °F 88.3 °F 73.2 °F 73% 29.97 in 10.0 mi NNE 9.2 mph - N/A   Scattered Clouds
8:29 PM 80.6 °F 85.4 °F 73.4 °F 79% 29.98 in 10.0 mi SE 15.0 mph - N/A Thunderstorm Light Drizzle
8:33 PM 80.6 °F 85.4 °F 73.4 °F 79% 29.98 in 10.0 mi SSE 13.8 mph - N/A Thunderstorm Light Drizzle
8:44 PM 78.8 °F - 75.2 °F 89% 29.99 in 10.0 mi South 12.7 mph - N/A Thunderstorm Overcast
8:58 PM 77.9 °F - 74.5 °F 89% 30.00 in 10.0 mi South 15.0 mph - 0.00 in Thunderstorm Overcast
9:58 PM 76.8 °F - 74.5 °F 92% 30.00 in 10.0 mi SSW 5.8 mph - N/A   Clear
10:58 PM 75.6 °F - 73.0 °F 92% 29.99 in 10.0 mi East 4.6 mph - N/A   Clear
11:58 PM 74.3 °F - 73.0 °F 96% 29.98 in 10.0 mi ENE 3.5 mph - N/A   Clear